Zurück zum Katalog

CZ-2C R/B

AktivVLEO
NORAD 58754·ROCKET BODY·🇨🇳 China

Gestartet Jan 9, 2024 von Xichang Satellite Launch Center

Loading…

Nächste Überflüge (nächste 24 Stunden)

TLE

AktuellSource: Space-Track

Epoche: Sep 14, 2026, 17:33 UTC

1 58754U 24007B   26257.73180700  .00015485  00000-0  27975-3 0  9996
2 58754  29.0104  38.9705 0057662 267.9285  91.4722 15.46212467150058

Verfolge CZ-2C R/B in Echtzeit mit AllMySat

Download on the App Store